Simultaneous Nadir Overpasses (SNOs) Predictions

Prediction of SNOs between METOP-A and NOAA-19 Satellite Orbit:

Table of predicted SNOs for the next 14.0 days since TLE Epoch: 6/8/2017
Index Date (METOP-A) Time (METOP-A) Lat,Lon (METOP-A) SZA (METOP-A ) Date (NOAA-19) Time (NOAA-19) Lat,Lon (NOAA-19) SZA (NOAA-19 ) Distance(km) Time Diff (sec)
1 06/08/2017 23:01:48 -77.26, 18.92 125.70 06/08/2017 23:02:10 -77.25, 18.91 125.70 0.87 22
2 06/08/2017 23:52:29 77.23,-173.85 54.28 06/08/2017 23:53:08 77.23,-173.77 54.29 2.00 39
3 06/09/2017 00:43:10 -77.24, -6.50 125.72 06/09/2017 00:44:11 -77.22, -6.48 125.73 1.40 61
4 06/09/2017 01:33:55 77.04, 160.00 54.07 06/09/2017 01:35:06 77.08, 161.42 54.15 35.62 71
5 06/19/2017 13:16:14 77.31, -14.49 53.85 06/19/2017 13:15:03 77.33, -14.38 53.87 3.35 71
6 06/19/2017 14:06:55 -77.32, 152.89 126.14 06/19/2017 14:06:04 -77.34, 152.83 126.13 2.15 51
7 06/19/2017 14:57:35 77.33, -39.73 53.88 06/19/2017 14:57:04 77.30, -39.77 53.84 3.42 31
8 06/19/2017 15:48:17 -77.30, 127.47 126.16 06/19/2017 15:48:05 -77.31, 127.44 126.15 1.30 12
9 06/19/2017 16:38:57 77.31, -65.15 53.85 06/19/2017 16:39:05 77.28, -65.16 53.82 3.76 8
10 06/19/2017 17:29:39 -77.28, 102.04 126.18 06/19/2017 17:30:06 -77.29, 102.04 126.18 0.61 27
11 06/19/2017 18:20:19 77.29, -90.58 53.83 06/19/2017 18:21:07 77.30, -90.74 53.84 4.04 48
12 06/19/2017 19:11:01 -77.26, 76.62 126.21 06/19/2017 19:12:07 -77.26, 76.65 126.20 0.75 66




NCC Satellite Simultaneous Nadir Overpasses (SNOs) Prediction Service
